Voltar ao catálogo

STARLINK-35771

AtivoComunicaçõesVLEO
NORAD 67171·PAYLOAD·🇺🇸 United States

Lançado Dec 17, 2025 de Cape Canaveral Space Force Station

Loading…

Próximas Passagens (próximas 24 horas)

TLE

AtualizadoSource: CelesTrak SupGP

Época: Sep 15, 2026, 03:54 UTC

1 67171C 25303J   26258.16298611  .00030281  00000+0  10963-2 0  2584
2 67171  43.0004 321.0167 0001282 263.0790 278.2831 15.27578177    17

Acompanhe STARLINK-35771 em tempo real com AllMySat

Download on the App Store